Dewpoint
56 56 56 55 55 56 56 56 56 56 56 55 55 55 55 55 55 56 56 55 55 55 55 55 55 55 55 55 55 55 56 51 48 43 40 32 45 64 60 59 61 61 65 54 52 46 43 44 46 49 51 49 52 55 59 60 65 64 59 56 53 54 56 59 59 61 62 62 63 63 63 64 64 66 65 67 65 64 63 63 61 59 58 57 60 61 63 66
55 55 55 55 55 56 56 55 55 56 56 55 55 55 56 56 55 55 55 55 55 55 55 55 55 55 55 55 55 55 54 50 43 39 36 39 54 58 61 61 66 61 67 52 46 42 41 39 41 47 48 49 51 53 58 59 61 59 58 55 53 55 57 61 61 62 61 61 64 63 63 63 63 63 64 62 63 63 62 62 62 60 61 61 61 62 64 65
55 55 55 55 55 55 55 55 55 55 55 55 55 55 55 55 55 55 55 55 55 55 55 55 55 55 55 55 55 55 53 45 42 37 45 61 61 60 62 66 65 64 61 52 45 42 39 38 38 42 44 48 51 51 56 62 61 60 58 54 56 58 59 62 61 62 63 64 64 64 63 63 63 64 65 62 61 61 59 59 60 59 60 60 61 62 63 64
55 55 55 55 55 55 55 55 55 55 55 55 55 55 55 55 55 55 55 55 55 54 54 54 54 55 55 55 55 53 50 45 23 32 41 69 63 61 63 66 65 66 54 49 46 43 39 39 36 38 44 51 52 54 56 60 58 60 58 55 55 58 59 62 61 62 65 65 64 64 64 64 64 64 64 61 60 60 62 59 59 57 58 60 60 61 62 62
55 55 55 55 55 55 55 55 55 55 55 55 55 56 56 56 55 55 55 55 55 55 54 54 54 55 55 55 56 52 49 25 19 31 49 72 66 61 63 66 66 56 46 43 47 44 40 36 33 38 48 54 53 56 56 57 58 56 57 54 55 57 58 61 62 64 64 65 65 65 63 64 65 64 63 61 59 59 61 60 59 58 59 60 60 60 61 60
55 55 55 55 55 55 55 55 55 55 55 55 55 55 55 55 55 55 55 55 54 54 54 54 54 55 55 56 52 50 43 4 22 28 62 71 68 63 64 65 66 52 49 44 45 45 39 34 31 37 47 53 54 54 54 55 58 55 54 53 53 59 60 62 62 65 64 64 65 63 64 65 63 62 63 62 62 62 63 62 59 59 59 60 61 61 60 59
55 55 55 55 55 55 55 55 55 55 55 55 55 55 55 55 55 55 54 54 54 54 55 54 54 55 55 57 51 45 36 19 18 40 67 71 68 64 64 64 64 53 46 38 42 42 37 31 28 32 47 53 55 55 55 55 55 53 50 51 58 62 62 62 64 64 64 65 64 65 65 63 60 59 62 62 64 64 62 62 60 59 60 61 60 60 60 60
55 55 55 55 55 55 56 55 55 55 55 55 55 55 55 55 55 55 55 54 54 54 54 54 54 55 55 50 46 40 20 8 33 50 67 70 64 60 62 47 50 49 40 34 34 38 34 28 26 33 47 52 53 53 54 51 49 49 50 55 61 64 64 64 64 64 65 66 65 64 62 61 62 61 62 62 64 64 63 63 62 60 60 60 60 60 61 61
55 55 55 55 55 55 55 55 55 55 55 55 55 55 55 54 54 54 54 55 54 54 54 54 54 54 55 52 42 12 5 35 46 55 62 60 53 51 51 46 46 42 40 36 35 35 31 27 26 37 47 50 51 52 51 48 47 48 50 56 62 64 64 64 64 65 67 66 65 63 62 63 63 64 62 63 65 64 62 61 60 60 59 59 59 61 61 61
55 55 55 55 55 55 55 55 55 55 55 55 55 55 54 54 54 54 54 54 54 53 54 54 55 55 52 46 34 9 38 44 47 55 57 53 48 48 46 39 41 41 39 35 33 33 28 25 28 42 52 51 49 50 47 42 39 43 55 60 62 65 64 65 65 67 66 66 65 63 63 63 63 62 59 63 65 63 61 60 60 60 59 59 58 59 60 61
55 55 55 55 55 55 55 55 55 55 55 55 55 54 54 54 54 54 54 54 54 53 54 55 54 55 48 42 28 -3 33 48 44 52 57 56 51 46 38 38 38 40 38 35 33 33 27 27 31 47 49 49 48 43 41 40 39 52 57 62 63 64 64 66 65 66 66 65 66 64 63 64 63 64 59 63 64 63 60 59 60 59 59 59 59 60 62 60
55 55 55 55 55 55 55 55 55 55 55 55 54 54 54 54 54 54 54 54 54 53 53 55 54 51 47 39 17 10 36 34 33 49 55 49 39 38 39 37 36 38 37 34 33 30 31 28 36 47 43 51 47 42 38 45 44 57 58 59 62 63 62 64 63 64 64 64 65 64 62 61 61 62 62 64 64 65 63 58 59 59 59 59 60 61 62 61
55 55 55 55 55 55 55 55 55 55 55 54 54 54 54 54 54 53 53 54 55 56 56 54 54 50 46 29 7 15 23 28 27 46 43 41 41 40 38 40 37 35 37 34 33 32 32 34 34 45 44 48 44 38 36 40 55 59 60 60 60 59 61 63 65 64 63 64 66 64 54 55 59 63 63 64 64 64 63 59 58 58 58 59 60 60 61 61
55 55 55 55 55 55 55 55 55 55 54 54 54 54 54 53 53 53 54 53 54 55 51 56 53 48 45 19 3 18 26 24 30 44 37 38 37 37 37 37 36 34 32 32 33 35 30 34 37 43 42 39 41 39 37 40 53 56 58 56 53 53 57 63 64 63 62 65 65 65 56 57 60 63 64 64 65 63 59 58 57 57 57 59 59 59 60 61
56 56 55 55 55 55 55 55 55 54 54 54 53 53 53 53 53 53 54 54 54 56 55 56 52 50 43 17 18 36 50 40 36 40 36 34 35 34 32 31 29 28 30 29 30 31 30 32 34 39 42 41 40 36 39 46 51 54 53 51 51 50 56 62 64 63 61 64 66 63 58 58 59 61 64 65 64 63 59 59 57 57 56 57 58 58 58 60
56 56 56 55 55 55 55 55 55 55 54 53 53 53 54 53 53 54 54 56 56 56 55 53 50 44 35 16 28 42 42 38 34 39 39 35 33 34 33 29 25 24 23 23 26 28 29 30 30 34 40 41 40 36 40 50 54 51 55 50 50 53 55 59 63 64 63 62 64 62 58 60 60 62 64 65 65 63 60 59 58 57 56 57 57 57 57 58
55 56 55 55 55 55 55 55 55 54 54 53 53 54 53 55 55 56 57 58 56 55 52 47 47 45 29 24 30 28 29 32 39 41 41 40 35 37 37 33 27 24 25 22 21 23 27 27 30 34 39 41 39 36 43 46 50 51 49 49 51 50 52 54 60 63 63 62 61 63 59 60 61 62 63 65 65 64 60 60 59 57 57 58 57 55 56 57
55 55 55 55 55 55 55 55 55 54 53 53 53 55 55 56 57 57 57 56 53 52 51 52 47 39 21 20 27 25 28 31 36 39 42 41 36 36 35 33 32 26 24 19 18 17 22 25 27 25 38 40 39 34 41 44 47 47 47 51 49 52 52 53 56 59 61 62 61 61 61 61 64 63 63 64 65 64 61 60 58 57 58 59 57 55 56 57
55 55 55 55 55 55 55 55 54 54 53 53 56 56 58 58 57 53 49 50 50 50 45 43 41 27 22 24 26 28 29 31 33 39 38 37 35 33 31 32 31 27 21 14 14 17 17 18 23 32 38 41 36 33 38 43 52 51 45 48 51 47 49 54 55 59 59 59 60 61 58 60 64 64 63 63 64 63 62 62 60 59 58 60 57 55 57 57
55 55 55 55 55 55 54 54 54 53 52 53 55 55 54 49 46 47 48 48 41 31 30 29 30 30 28 27 25 29 31 34 33 35 36 36 31 28 27 28 28 21 15 8 14 15 15 17 17 30 38 42 38 34 35 37 44 48 46 48 49 57 49 54 54 59 62 60 58 59 60 59 61 62 64 63 63 63 61 61 61 61 61 59 56 57 57 58
55 55 55 55 55 55 54 54 53 52 51 51 50 49 31 32 30 29 33 31 30 33 32 31 31 30 27 29 29 29 29 30 33 35 35 35 28 23 21 25 22 15 8 6 12 18 15 17 15 26 37 42 39 35 32 31 38 44 44 46 48 55 50 55 57 58 62 58 57 59 57 58 60 61 63 65 63 61 61 61 61 60 60 60 59 59 58 60
55 55 55 55 54 54 54 53 52 51 51 53 49 36 33 32 31 34 36 29 30 32 33 31 34 31 30 32 32 32 31 29 32 36 36 33 27 21 18 17 15 9 6 10 19 21 19 14 12 22 38 37 35 34 28 30 40 46 46 46 43 45 52 56 61 60 62 59 56 57 58 58 59 62 62 63 63 62 62 62 61 60 60 61 60 61 61 59
55 55 55 55 54 53 53 52 51 50 52 50 40 34 33 34 36 40 36 33 31 32 29 30 27 25 27 30 35 34 28 27 29 33 34 35 23 26 18 18 13 9 10 11 12 14 14 13 17 32 37 36 35 30 27 26 32 43 47 45 45 48 49 51 55 60 62 59 56 57 55 60 60 61 63 64 63 63 64 65 63 62 61 60 60 62 61 60
55 55 54 54 54 53 53 51 49 51 49 40 33 34 36 36 36 37 34 31 25 30 23 20 21 21 21 24 33 33 27 26 29 31 35 32 26 24 17 17 13 15 5 5 7 12 13 13 26 36 38 37 34 29 26 26 25 26 37 51 48 53 52 50 56 57 59 59 58 58 55 55 59 58 60 63 64 65 65 65 64 62 63 63 63 62 63 61
55 55 55 54 53 53 51 50 50 45 41 41 35 37 38 41 42 38 34 33 30 23 23 26 22 16 20 25 31 33 24 27 27 32 34 32 28 24 22 21 17 10 8 6 5 13 19 30 34 34 37 37 34 28 26 26 26 26 25 31 45 48 49 50 55 54 53 55 54 55 49 53 56 57 58 61 62 62 63 63 63 63 63 63 62 62 63 64
55 55 54 54 53 52 51 47 42 37 32 29 34 38 39 37 38 42 35 30 11 13 18 13 15 14 18 20 26 25 25 24 27 30 33 31 33 29 28 22 20 13 18 13 14 16 20 30 31 32 36 37 33 29 26 25 25 26 26 28 33 42 48 52 52 50 48 46 51 51 50 47 54 52 57 59 60 60 63 63 62 62 63 63 62 62 62 62
55 55 54 54 53 51 49 26 40 35 32 30 36 38 37 37 50 40 35 20 13 14 16 15 13 13 16 13 17 25 20 21 26 33 33 34 31 32 27 25 20 25 22 15 19 14 30 31 27 29 34 35 33 30 27 26 25 28 20 22 26 38 45 47 48 48 45 48 52 49 47 49 52 53 56 60 60 60 61 62 62 62 63 62 62 60 62 62
55 54 53 53 52 51 49 48 38 29 27 35 36 36 37 47 48 40 34 15 11 17 13 16 13 17 14 14 14 18 26 25 25 30 32 31 35 30 28 25 19 21 22 24 13 25 27 28 29 30 31 32 32 31 26 26 25 24 15 17 21 30 42 41 39 40 43 41 48 47 50 47 46 54 56 58 58 59 60 62 62 63 62 63 62 60 61 62
54 54 53 53 52 51 51 49 46 29 36 38 36 35 38 50 41 36 21 14 16 16 18 16 18 15 14 14 14 19 19 23 19 30 32 33 33 30 24 26 23 23 22 20 9 28 27 29 27 30 30 29 32 30 26 25 25 32 29 34 35 33 37 38 38 40 44 41 40 49 49 45 45 54 54 58 57 57 59 61 62 63 63 63 62 62 61 62
54 53 53 52 51 51 51 51 44 37 41 39 38 42 42 42 36 31 17 13 17 14 18 16 17 14 14 11 12 17 20 19 27 30 32 31 30 30 29 29 24 25 23 21 19 26 28 33 31 28 28 28 31 29 30 30 28 35 40 41 42 38 42 41 44 46 47 41 39 46 48 45 41 52 51 53 54 56 56 58 61 63 62 62 63 63 62 62
53 53 52 52 50 47 44 40 36 42 43 44 41 41 41 37 25 17 15 13 18 15 18 17 15 16 11 10 11 16 15 16 22 28 29 30 28 28 28 25 26 22 23 22 17 27 27 28 28 28 29 27 28 27 28 27 31 35 32 39 39 42 43 42 45 49 41 35 45 46 47 46 41 47 49 53 56 55 56 56 59 61 64 63 64 64 62 62
52 51 52 52 51 51 39 28 42 42 45 41 41 40 34 28 16 16 14 20 19 15 15 16 16 15 13 13 15 15 15 19 16 21 24 26 26 25 25 20 22 21 19 20 16 23 24 24 26 26 32 27 26 25 24 27 32 31 32 37 34 42 39 38 49 37 37 38 43 42 45 47 45 47 48 51 54 54 56 57 57 60 63 64 64 63 63 62
51 51 50 51 52 50 47 49 49 50 46 40 42 35 29 17 20 18 17 15 16 19 16 19 17 17 14 15 15 13 14 13 16 19 22 24 25 23 25 25 23 22 19 17 16 19 18 23 25 24 26 29 26 22 22 25 32 31 33 34 34 38 38 34 34 36 41 38 42 42 50 44 47 48 50 51 53 53 54 56 58 60 62 64 65 63 63 63
50 50 52 52 51 50 50 53 51 48 42 43 40 25 22 19 19 23 20 15 16 19 19 18 18 18 17 6 15 15 14 18 18 17 19 25 23 25 25 25 25 23 24 18 16 19 15 17 22 24 21 25 25 23 21 22 26 31 33 32 33 37 36 35 33 33 33 42 37 46 43 42 40 49 51 51 52 54 54 54 58 61 63 65 66 65 63 63
49 51 54 54 52 51 50 50 52 49 42 37 30 19 19 20 20 17 17 16 17 18 18 19 17 16 15 15 17 17 22 19 23 19 19 22 21 18 19 19 25 24 21 20 19 19 13 14 18 24 23 24 23 24 22 20 21 25 28 33 31 32 37 35 36 35 37 38 41 44 38 44 47 54 54 55 53 53 54 56 59 62 64 65 66 67 63 62
50 52 52 53 50 49 50 50 51 47 42 32 23 20 19 22 18 17 19 22 19 18 17 16 15 15 15 16 21 19 24 21 23 21 19 17 20 18 20 20 20 24 22 18 21 16 17 15 18 20 20 22 21 23 23 20 19 20 22 27 31 31 31 39 36 34 37 37 36 44 40 39 48 47 52 52 52 53 54 54 56 61 63 65 64 67 64 63
47 50 47 43 46 47 50 50 48 45 41 32 21 22 25 22 20 20 23 19 18 19 18 17 16 16 14 15 17 20 21 22 23 22 25 20 18 19 18 18 18 20 21 21 19 20 19 10 14 18 18 20 20 20 20 21 18 18 18 22 31 34 35 35 30 42 34 34 33 36 37 35 38 37 54 54 51 52 53 53 55 61 61 63 63 65 67 65
49 45 42 39 42 48 50 50 46 43 33 23 25 28 24 20 21 20 20 19 18 19 19 20 19 21 15 14 15 17 20 20 22 21 21 20 25 20 20 20 18 19 21 22 22 21 21 17 16 17 16 17 17 16 17 20 19 19 18 20 26 32 32 35 35 32 33 29 31 37 35 32 35 41 46 52 51 51 53 55 57 60 60 61 63 65 65 65
51 45 32 39 43 44 48 49 44 39 25 21 25 24 21 22 22 19 20 20 19 20 17 18 19 20 19 14 18 19 19 18 20 21 20 21 19 21 22 24 21 22 23 23 20 22 20 16 15 18 15 17 18 15 14 15 16 18 21 17 21 29 29 29 31 33 34 33 30 32 33 30 38 33 48 52 54 55 55 56 56 60 61 61 62 64 64 64
36 30 28 42 42 48 51 46 38 23 19 23 19 22 22 21 19 20 20 21 19 20 19 20 20 17 19 20 20 17 20 20 22 21 17 22 19 23 22 25 24 25 21 24 25 24 23 26 20 18 20 17 16 15 10 14 15 16 16 20 25 24 24 26 27 28 29 31 30 28 29 32 46 57 58 58 58 58 56 57 57 58 61 62 62 64 67 69
38 32 31 42 42 47 45 40 24 18 20 16 18 18 20 21 19 20 23 21 20 22 21 21 20 20 21 22 19 21 19 18 19 17 18 21 21 20 24 25 26 26 23 22 23 27 28 24 20 18 18 16 11 16 12 12 13 15 14 15 19 19 21 26 29 26 26 30 29 28 27 36 51 56 58 57 57 58 57 58 58 59 60 61 61 63 65 68
33 23 34 41 42 43 38 23 20 21 18 17 15 16 20 30 18 17 21 22 21 20 23 24 24 23 22 21 22 22 21 19 20 19 20 15 21 23 23 26 27 28 27 27 25 31 33 31 26 21 18 16 12 15 17 23 18 15 14 13 16 18 19 24 24 28 29 29 27 31 30 43 53 55 58 57 57 56 57 57 58 58 59 59 62 62 65 66
25 29 38 41 43 38 32 22 27 24 19 17 20 17 17 18 17 17 15 23 21 20 21 23 24 26 25 26 23 20 22 21 23 20 20 19 21 23 25 26 28 29 30 24 28 38 41 31 26 24 26 23 23 22 23 24 20 16 15 13 15 16 15 17 20 25 31 29 29 33 32 36 55 58 58 60 59 58 58 57 58 59 59 59 61 62 64 66
34 31 36 39 42 40 27 21 18 15 16 20 18 18 20 21 20 18 20 22 21 20 21 23 24 25 27 27 24 24 24 24 23 23 23 24 19 24 26 25 28 29 25 24 30 33 36 38 35 25 25 23 21 23 19 20 20 17 15 16 18 19 17 15 18 25 29 26 30 27 25 34 56 57 57 58 58 59 58 58 59 60 61 61 61 61 62 65
37 31 32 31 37 33 24 20 18 15 19 19 16 17 16 20 23 25 23 24 25 23 24 24 26 27 25 26 25 24 23 24 24 23 25 23 20 21 22 25 27 34 36 40 47 32 32 33 36 24 22 19 19 19 20 21 19 17 21 25 26 22 22 25 24 30 26 32 32 28 28 49 55 57 57 58 59 60 60 60 61 62 62 62 61 61 63 64
28 28 25 26 27 23 25 25 20 17 19 21 19 18 16 17 20 24 25 24 28 25 25 26 26 26 25 25 24 23 23 23 24 27 27 23 21 21 21 23 25 31 47 47 39 35 32 35 38 35 32 24 32 37 30 31 18 21 24 26 24 22 22 25 24 22 22 30 35 35 31 51 54 53 55 57 59 60 60 61 61 62 62 63 65 64 64 65
34 24 24 25 23 21 23 23 22 18 17 19 23 18 18 17 19 20 24 22 26 25 24 24 24 25 27 24 24 24 23 22 26 27 26 23 24 23 21 21 22 34 48 43 37 32 38 32 31 36 34 33 34 33 33 31 25 27 26 27 29 26 30 28 24 21 34 26 29 34 37 32 49 53 55 57 58 60 60 60 60 61 62 63 64 65 66 65
32 34 33 45 31 21 20 21 23 18 21 17 24 20 18 18 18 21 21 23 24 25 20 25 21 23 25 27 28 27 28 29 29 28 25 25 26 21 23 19 20 37 38 28 31 32 33 32 31 29 28 30 33 34 35 35 34 35 34 32 32 33 33 30 27 40 43 30 23 42 47 38 47 52 54 56 60 59 60 60 60 61 62 63 63 64 64 64
42 41 42 42 30 25 31 40 30 21 19 18 26 22 19 17 18 18 20 22 21 25 20 27 25 23 24 28 29 30 33 28 28 32 32 27 26 27 23 21 19 21 25 29 33 41 37 30 31 27 28 29 32 33 34 34 35 36 37 38 39 37 39 39 42 45 45 50 47 47 55 53 52 54 55 58 59 59 60 60 60 61 61 62 63 64 63 64
44 43 37 40 42 35 39 34 28 22 21 36 27 23 23 18 18 20 20 21 26 24 22 23 23 24 24 26 33 27 30 31 32 31 32 33 27 30 28 25 22 24 24 29 30 40 37 37 48 34 30 27 30 33 33 32 34 34 36 39 41 41 42 44 45 46 48 49 46 50 55 54 55 56 57 59 59 59 59 59 60 61 61 62 62 62 63 64
50 52 53 49 35 38 36 29 25 25 21 25 23 24 21 18 20 22 23 23 25 28 26 27 24 24 23 24 27 27 25 30 31 28 28 28 27 26 29 28 24 26 29 30 33 37 33 37 39 41 29 25 26 25 29 31 30 32 34 36 39 43 44 45 47 48 49 51 51 51 49 51 53 58 58 60 59 59 59 60 60 61 61 61 61 62 63 64
54 53 55 52 42 46 33 29 30 23 19 21 22 23 21 19 22 22 25 24 27 26 26 25 28 27 24 27 27 26 24 24 24 26 28 23 24 25 24 25 22 26 26 27 35 34 35 34 32 29 25 28 27 26 25 26 28 28 31 33 37 44 47 46 47 48 49 50 48 44 51 53 55 57 57 58 57 58 59 59 60 61 62 61 61 62 62 64